User: anonymous   Login
Location: Caltech
(34.1382°N, 118.1253°W)
Time: 04:36:36
(UTC-08:00)
Language:

Cosmos 1833 Rocket - Orbit

View from above orbital plane
View from above orbital plane
View from above satellite
View from above satellite

Ground track
Ground track

The orbit data is extracted from the following two-line orbital elements,

1 17590U 87027B   17054.45605949  .00000180  00000-0  11383-3 0  9993
2 17590  71.0038  29.4609 0003200 137.3030 222.8343 14.16738560548018
Epoch (UTC): 23 February 2017 10:56:43
Eccentricity: 0.0003200
inclination: 71.0038°
perigee height: 834 km
apogee height: 839 km
right ascension of ascending node: 29.4609°
argument of perigee: 137.3030°
revolutions per day: 14.16738560
mean anomaly at epoch: 222.8343°
orbit number at epoch: 54801

The dashed part of the orbit path shows where the satellite is in the earth's shadow,  

DLR